Regional Weather Roundup
Issued by NWS

Home | Current Version | Previous Version | Text Only | Print | Product List | Glossary Off
Versions: 1 2 3 4 5 6 7 8 9 10 11 12 13 14 15 16 17 18 19 20 21 22 23 24 25 26 27 28 29 30 31 32 33 34 35 36 37 38 39 40 41 42 43 44 45 46 47 48 49 50

000
ASUS45 KPSR 271000
RWRAZ

ARIZONA REGIONAL HOURLY WEATHER ROUNDUP
NATIONAL WEATHER SERVICE PHOENIX AZ
300 AM MST MON APR 27 2015

NOTE: FAIR INDICATES FEW OR NO CLOUDS BELOW 12,000 FEET WITH NO
SIGNIFICANT WEATHER AND/OR OBSTRUCTIONS TO VISIBILITY.

AZZ001>003-036-271100-
NORTHWEST ARIZONA

CITY           SKY/WX    TMP DP  RH WIND       PRES   REMARKS
KINGMAN        CLEAR     37  27  67 CALM      29.99R
$$

AZZ004>008-015-016-018-271100-
NORTH CENTRAL ARIZONA

CITY           SKY/WX    TMP DP  RH WIND       PRES   REMARKS
GRAND CANYON   CLEAR     30  25  81 NE7       30.04R WCI  23
WILLIAMS       CLEAR     28  23  80 CALM      30.09S
PRESCOTT       CLEAR     42  25  50 W8        29.99S
FLAGSTAFF      NOT AVBL
PAYSON         CLEAR     43  37  81 CALM      29.96S
PAGE           PTCLDY    50  28  42 W5        29.99S
$$

AZZ009>014-017-271100-
NORTHEAST ARIZONA

CITY           SKY/WX    TMP DP  RH WIND       PRES   REMARKS
WINSLOW        NOT AVBL
SAINT JOHNS    CLOUDY    44  37  76 W8        29.92R
WINDOW ROCK    CLOUDY    43  36  76 N5        29.95R
$$

AZZ023-271100-
GREATER PHOENIX AREA

CITY           SKY/WX    TMP DP  RH WIND       PRES   REMARKS
PHOENIX        CLEAR     59  51  75 SE3       29.84S
DEER VALLEY    CLEAR     54  46  74 NE8       29.85S
SCOTTSDALE     CLEAR     55  49  80 CALM      29.86S
$$

AZZ027-028-271100-
SOUTHWEST MARICOPA COUNTY AND PINAL COUNTY

CITY           SKY/WX    TMP DP  RH WIND       PRES   REMARKS
CASA GRANDE    CLEAR     54  41  62 CALM      29.85R
$$

AZZ503-504-507>509-271100-
SOUTHEAST ARIZONA

CITY           SKY/WX    TMP DP  RH WIND       PRES   REMARKS
TUCSON         CLEAR     52  36  54 SE3       29.90S
NOGALES        CLEAR     44  30  57 CALM      29.91S
SAFFORD        CLEAR     44  43  96 E5        29.88S
$$

AZZ020-021-025-026-031-271100-
SOUTHWEST ARIZONA

CITY           SKY/WX    TMP DP  RH WIND       PRES   REMARKS
YUMA           NOT AVBL
$$

CAZ031-033-041-043-047-048-061-271100-
SOUTHERN CALIFORNIA

CITY           SKY/WX    TMP DP  RH WIND       PRES   REMARKS
DOWNTOWN L.A.  CLEAR     60  52  74 CALM      29.91F
L.A. AIRPORT   PTCLDY    57  51  80 E5        29.92S
SAN DIEGO      PTCLDY    60  50  69 NE3       29.92S
BURBANK        CLEAR     58  43  57 SW6       29.91F
ONTARIO        PTCLDY    60  43  53 VRB6      29.91F
RIVERSIDE      CLEAR     67  35  30 VRB6      29.92S
PALM SPRINGS   CLEAR     66  46  48 VRB3      29.93S
EL CENTRO NAS  CLEAR     58  37  45 W9        29.89R
IMPERIAL       CLEAR     57  44  62 NW3       29.86S
BLYTHE         CLEAR     65  23  20 NW12      29.88S
$$

NVZ020-UTZ003-271100-
SOUTHERN NEVADA-UTAH

CITY           SKY/WX    TMP DP  RH WIND       PRES   REMARKS
LAS VEGAS      NOT AVBL
SALT LAKE CITY MOCLDY    45  35  68 NW13      30.16R
$$

NMZ009-TXZ055-271100-
NEW MEXICO-WEST TEXAS

CITY           SKY/WX    TMP DP  RH WIND       PRES   REMARKS
ALBUQUERQUE    CLOUDY    45  40  82 SE5       29.92R
EL PASO        PTCLDY    53  36  52 SW8       29.83S
$$


........................KEY........................
SKY/WX - SKY CONDITION/WEATHER
TMP    - TEMPERATURE IN FAHRENHEIT
DP     - DEW POINT IN FAHRENHEIT
RH     - RELATIVE HUMIDITY IN PERCENT
WIND   - DIRECTION AND SPEED IN MILES PER HOUR (MPH)
VRB    - VARIABLE WIND DIRECTION
PRES   - MEAN SEA LEVEL PRESSURE IN INCHES OF MERCURY
         F - FALLING PRESSURE   R - RISING PRESSURE
         S - STEADY PRESSURE
VSB    - VISIBILITY IN MILES
HX     - HEAT INDEX IN FAHRENHEIT
WCI    - WIND CHILL INDEX IN FAHRENHEIT
TC     - TEMPERATURE IN CELSIUS WHICH IS ALSO KNOWN AS
         TEMPERATURE IN CENTIGRADE
AFB    - AIR FORCE BASE
         LUKE AFB IS LUKE AIR FORCE BASE
         DAVIS-MONTHAN IS DAVIS-MONTHAN AIR FORCE BASE
NAS    - NAVAL AIR STATION
         EL CENTRO NAS IS EL CENTRO NAVAL AIR STATION
N/A    - NOT AVAILABLE




USA.gov is the U.S. government's official web portal to all federal, state and local government web resources and services.